[[{"header":{"parameterUnit":"m.s-1","parameterCategory":1,"la1":30.2991,"la2":30.254,"lo1":-89.0895,"lo2":-89.0444,"dy":0.0017,"dx":0.0017,"nx":28,"ny":28,"refTime":"2024-12-04T09:00:00:Z","depth":0,"parameterNumber":2,"parameterNumberName":"U-component_of_WINDS"},"data":[0,0,0,0,0,0,0,0,0,0,0,0,0,0,0,0,0,0,0,0,0,0,0,0,0,0,0,0,0,0,0,0,0,0,0,0,0,0,0,0,0,0,0,0,0,0,0,0,0,0,0,0,0,0,0,0,0,0,4.9139,4.9141,0,4.9272,4.9273,4.9275,4.9201,4.9198,4.9194,4.9191,4.9325,4.9331,4.9338,0,0,0,0,0,0,0,0,0,0,0,0,0,4.8826,4.8832,4.9139,4.9141,4.9143,4.9271,4.9273,4.9275,4.9202,4.9197,4.9193,4.9189,4.9322,4.933,4.9339,0,0,0,0,0,0,0,0,0,0,0,0,0,4.8961,4.8834,4.9139,4.9122,4.9122,4.9271,4.9273,4.9275,4.9203,4.9197,4.9192,4.9187,4.9319,4.933,4.934,4.9513,0,0,4.9372,4.9376,0,0,0,0,0,0,0,0,4.8953,4.8972,4.9123,4.9123,4.9123,4.9214,4.9212,4.9355,4.9204,4.9172,4.919,4.9184,4.9292,4.9305,4.9341,4.952,4.9525,4.9373,4.9379,4.9384,4.9386,0,0,0,0,0,0,0,4.8944,4.8966,4.9191,4.9125,4.9125,4.9108,4.9121,4.9239,4.9261,4.9174,4.9169,4.9186,4.9291,4.9331,4.9344,4.9527,4.9372,4.9382,4.9388,4.9392,4.986,4.9866,0,0,0,0,0,0,4.8936,4.8959,4.9187,4.9195,4.9023,4.9118,4.9133,4.9191,4.9259,4.9265,4.9191,4.9182,4.9316,4.9332,4.9348,4.9559,4.9383,4.9393,4.9399,4.9854,4.9862,4.9868,0,0,0,0,0,0,4.8929,4.8957,4.9182,4.9076,4.9103,4.9129,4.9195,4.9196,4.9236,4.9272,4.9275,4.9227,4.9313,4.9334,4.9474,4.9562,4.9398,4.9407,4.9847,4.9856,4.9865,4.9979,0,0,0,0,0,0,4.892,4.8955,4.902,4.9078,4.9109,4.9305,4.92,4.9203,4.9254,4.9245,4.9307,4.9312,4.931,4.9459,4.9485,4.9574,4.9416,4.9839,4.9851,4.9862,4.9968,4.9991,5.0011,0,0,0,0,0,4.8909,4.9045,4.9023,4.9051,4.9191,4.931,4.9328,4.9323,4.9262,4.9328,4.9352,4.931,4.9549,4.9474,4.9502,4.9596,4.9833,4.9848,4.9861,4.9958,4.9987,5.0011,0,0,0,0,0,0,4.8994,4.9052,4.9029,4.9187,4.9245,4.9298,4.938,4.9353,4.9428,4.9416,4.9406,4.9421,4.9568,4.9596,4.9511,4.977,4.9682,4.9702,4.9746,4.9773,4.9795,4.9784,4.9424,0,0,0,0,0,4.9032,4.9124,4.9169,4.9305,4.9335,4.9354,4.9405,4.9397,4.9456,4.9479,4.9513,4.9572,4.966,4.9718,4.9802,4.9972,4.9986,5.0051,5.0073,5.0091,5.0108,5.0204,5.0234,4.9914,4.9914,4.9914,0,0,4.9109,4.9152,4.921,4.9323,4.9366,4.9463,4.9374,4.9478,4.955,4.9495,4.963,4.9658,4.9723,4.9881,4.9952,4.9909,5.02,5.0108,5.0122,5.013,5.0221,5.0252,5.0279,4.9923,4.9922,4.992,0,0,4.93,4.9341,4.946,4.9507,4.9575,4.9588,4.9617,4.9676,4.9693,4.9829,4.9791,4.9877,5.0029,5.0078,5.0123,5.034,5.0306,5.0368,5.0481,5.0575,5.06,5.0623,5.0702,5.073,5.0385,5.0385,5.0386,0,4.9387,4.953,4.9525,4.9634,4.9686,4.9644,4.9766,4.9811,4.9903,4.994,4.9891,5.0085,5.0125,5.0296,5.0349,5.0387,5.0421,5.0359,5.0597,5.062,5.064,5.0716,5.0746,5.0393,5.0392,5.0391,5.039,0,4.9635,4.9736,4.9824,4.9917,4.9979,5.0094,5.0108,5.0172,5.0161,5.0179,5.0321,5.0369,5.0464,5.0504,5.0492,5.0674,5.0646,5.0598,5.0509,5.0678,5.0749,5.0778,5.0403,5.04,5.0398,5.0396,0,0,4.9877,4.9971,5.0003,5.0046,5.0122,5.02,5.0315,5.0409,5.0465,5.0532,5.0629,5.0762,5.072,5.0771,5.0765,5.0848,5.1021,5.079,5.0792,5.0832,5.1228,5.1263,5.1296,5.0999,5.1005,5.1009,5.1223,0,5.0074,5.0275,5.0277,5.0463,5.0557,5.0522,5.0623,5.0681,5.0703,5.0787,5.0811,5.0907,5.0842,5.0874,5.0954,5.0982,5.11,5.0967,5.109,5.1095,5.1074,5.1333,5.137,5.1568,5.125,5.1255,5.1258,0,5.0327,5.0406,5.0602,5.0668,5.0708,5.0799,5.0888,5.0969,5.1036,5.1046,5.1107,5.1091,5.121,5.112,5.1286,5.1196,5.1248,5.127,5.1278,5.1288,5.1186,5.1351,5.1631,5.1661,5.1301,5.1298,5.1295,0,5.0486,5.064,5.0779,5.0817,5.0897,5.0963,5.0999,5.1061,5.112,5.1198,5.1236,5.1327,5.1377,5.1449,5.1458,5.1391,5.1627,5.1536,5.164,5.164,5.1688,5.1685,5.1982,5.1723,5.1723,5.1722,5.1721,0,5.0704,5.0826,5.0852,5.0936,5.1073,5.1076,5.1211,5.1243,5.13,5.1391,5.1367,5.1453,5.1461,5.1551,5.156,5.1698,5.172,5.1733,5.1734,5.1735,5.1733,5.1767,5.1753,5.173,5.1728,5.1727,5.1725,0,5.0902,5.0925,5.1073,5.114,5.116,5.1258,5.1315,5.1398,5.142,5.1537,5.1564,5.1599,5.1704,5.1722,5.1845,5.1851,5.2017,5.2003,5.1994,5.1992,5.2095,5.2085,5.2423,5.2468,5.218,5.2183,5.2185,0,5.1039,5.1133,5.1211,5.1272,5.1313,5.141,5.1471,5.1479,5.1544,5.1631,5.1704,5.1807,5.189,5.2061,5.2097,5.2192,5.2181,5.2293,5.2195,5.2195,5.2184,5.2178,5.2188,5.2311,5.2314,5.2317,5.2319,0,5.1281,5.1289,5.1377,5.1472,5.1546,5.1621,5.1691,5.1742,5.1761,5.1835,5.1943,5.2008,5.2137,5.2241,5.2337,5.2376,5.2352,5.2351,5.238,5.2381,5.2372,5.238,5.2046,5.2342,5.2339,5.2338,5.2337,5.2336,5.1453,5.1536,5.1606,5.1707,5.1762,5.183,5.1912,5.1947,5.2038,5.2144,5.2144,5.2264,5.2334,5.2461,5.2507,5.2602,5.2566,5.2608,5.2618,5.2628,5.2639,5.2359,5.2619,5.2619,5.2618,5.2618,5.2617,0,5.1693,5.1738,5.1831,5.1933,5.2014,5.1987,5.2066,5.2135,5.2241,5.2309,5.2393,5.252,5.2623,5.267,5.2771,5.2838,5.283,5.2865,5.2859,5.2869,5.2664,5.2629,5.287,5.287,5.287,5.287,5.287,5.287,5.1827,5.1968,5.1985,5.2154,5.2198,5.2317,5.2364,5.2428,5.2483,5.2627,5.2713,5.2744,5.2805,5.2911,5.3005,5.3016,5.3055,5.3095,5.3101,5.2909,5.2883,5.2858,5.2826,5.3103,5.3104,5.3298,5.33,5.3301]},{"header":{"parameterUnit":"m.s-1","parameterCategory":1,"la1":30.2991,"la2":30.254,"lo1":-89.0895,"lo2":-89.0444,"dy":0.0017,"dx":0.0017,"nx":28,"ny":28,"refTime":"2024-12-04T09:00:00:Z","depth":0,"parameterNumber":3,"parameterNumberName":"V-component_of_WINDS"},"data":[0,0,0,0,0,0,0,0,0,0,0,0,0,0,0,0,0,0,0,0,0,0,0,0,0,0,0,0,0,0,0,0,0,0,0,0,0,0,0,0,0,0,0,0,0,0,0,0,0,0,0,0,0,0,0,0,0,0,-0.0778,-0.0775,0,-0.0498,-0.0494,-0.0491,-0.0403,-0.0405,-0.0406,-0.0407,-0.0107,-0.0098,-0.0088,0,0,0,0,0,0,0,0,0,0,0,0,0,-0.1228,-0.1221,-0.0779,-0.0775,-0.0772,-0.0498,-0.0494,-0.049,-0.0403,-0.0405,-0.0406,-0.0408,-0.011,-0.0099,-0.0088,0,0,0,0,0,0,0,0,0,0,0,0,0,-0.0999,-0.1218,-0.0779,-0.0695,-0.0685,-0.0499,-0.0494,-0.0489,-0.0403,-0.0405,-0.0407,-0.0409,-0.0113,-0.01,-0.0086,0.0041,0,0,-0.0043,-0.0037,0,0,0,0,0,0,0,0,-0.1012,-0.0982,-0.0711,-0.0701,-0.0689,-0.0488,-0.0542,-0.0311,-0.0402,-0.051,-0.0407,-0.041,-0.0231,-0.0207,-0.015,0.0055,0.0068,-0.0042,-0.0034,-0.0028,-0.0024,0,0,0,0,0,0,0,-0.1028,-0.0994,-0.0667,-0.0707,-0.0694,-0.0668,-0.0638,-0.0498,-0.0362,-0.05,-0.0493,-0.0462,-0.0225,-0.0164,-0.0142,0.0073,-0.0043,-0.003,-0.0022,-0.0016,0.0396,0.0398,0,0,0,0,0,0,-0.106,-0.1008,-0.0676,-0.0659,-0.0859,-0.0659,-0.0625,-0.055,-0.0363,-0.0337,-0.0461,-0.0459,-0.0186,-0.0158,-0.0131,0.003,-0.0028,-0.0015,-0.0007,0.0393,0.0397,0.0399,0,0,0,0,0,0,-0.107,-0.1031,-0.0687,-0.0831,-0.0786,-0.0649,-0.0566,-0.0544,-0.0482,-0.0333,-0.0307,-0.0423,-0.0187,-0.0151,-0.0003,0.0041,-0.0009,0.0004,0.039,0.0394,0.0398,0.0352,0,0,0,0,0,0,-0.1083,-0.1035,-0.0988,-0.0831,-0.0778,-0.0568,-0.0563,-0.0537,-0.046,-0.0455,-0.0291,-0.0266,-0.0186,-0.0025,0.001,0.006,0.0015,0.0387,0.0392,0.0397,0.0351,0.0354,0.0357,0,0,0,0,0,-0.1099,-0.1009,-0.0986,-0.0946,-0.0717,-0.0565,-0.0535,-0.0448,-0.0457,-0.0406,-0.0311,-0.0271,0.003,-0.001,0.003,0.0084,0.0385,0.0391,0.0396,0.0349,0.0354,0.0357,0,0,0,0,0,0,-0.1159,-0.0987,-0.0959,-0.0816,-0.0707,-0.0551,-0.0485,-0.0446,-0.0328,-0.0328,-0.0221,-0.0185,-0.0045,0.0035,-0.0014,0.0217,0.021,0.0224,0.016,0.0165,0.0168,0.0147,0.0027,0,0,0,0,0,-0.1156,-0.1052,-0.0905,-0.0792,-0.074,-0.0622,-0.0553,-0.0496,-0.0376,-0.0328,-0.0222,-0.0104,0.0018,0.0096,0.0216,0.0362,0.04,0.0419,0.0422,0.0424,0.0436,0.052,0.053,0.0419,0.0419,0.0418,0,0,-0.1148,-0.1041,-0.098,-0.0802,-0.071,-0.0601,-0.0583,-0.0468,-0.0384,-0.0309,-0.0165,-0.0083,0.0056,0.0203,0.0273,0.0274,0.0475,0.0432,0.0432,0.0444,0.0527,0.0537,0.0546,0.0423,0.0422,0.0421,0,0,-0.1077,-0.0986,-0.0883,-0.0793,-0.0657,-0.058,-0.0556,-0.0406,-0.035,-0.0205,-0.0146,-0.0043,0.0163,0.0259,0.0335,0.044,0.0481,0.0476,0.0495,0.0575,0.0584,0.0592,0.063,0.0642,0.0487,0.0487,0.0487,0,-0.1082,-0.0919,-0.0834,-0.0723,-0.0645,-0.0577,-0.0471,-0.0386,-0.0215,-0.0162,-0.0165,0.0094,0.0193,0.0363,0.0388,0.0447,0.0481,0.0459,0.0575,0.0584,0.0593,0.0631,0.0645,0.0485,0.0485,0.0486,0.0486,0,-0.0932,-0.082,-0.0752,-0.0596,-0.051,-0.0402,-0.0297,-0.0221,-0.0172,-0.0094,0.0054,0.0174,0.0319,0.0363,0.0415,0.0541,0.0537,0.0553,0.0548,0.0601,0.0638,0.0653,0.0483,0.0484,0.0484,0.0485,0,0,-0.0888,-0.0689,-0.0665,-0.0594,-0.0439,-0.0349,-0.0236,-0.01,-0.0036,0.008,0.0178,0.035,0.0364,0.045,0.0513,0.0583,0.0658,0.0591,0.0596,0.06,0.0806,0.0794,0.0809,0.0685,0.0689,0.0691,0.0795,0,-0.0797,-0.0599,-0.052,-0.0356,-0.0251,-0.0186,-0.0087,0.0019,0.0095,0.0199,0.0285,0.0404,0.0414,0.0466,0.0538,0.0633,0.0701,0.0627,0.0782,0.0786,0.0746,0.0829,0.0817,0.0909,0.081,0.0812,0.0814,0,-0.0663,-0.0553,-0.0381,-0.0242,-0.0194,-0.0108,0.0023,0.012,0.0244,0.0294,0.0388,0.0446,0.0569,0.0554,0.0727,0.0674,0.0742,0.0799,0.0804,0.0824,0.0804,0.0851,0.094,0.0954,0.0838,0.0836,0.0834,0,-0.0648,-0.0456,-0.0329,-0.0269,-0.0103,-0.0044,0.0029,0.0149,0.0226,0.0342,0.0394,0.0524,0.0596,0.0698,0.079,0.077,0.0955,0.0947,0.1003,0.1,0.1041,0.1037,0.1143,0.1081,0.1081,0.1081,0.1081,0,-0.0554,-0.0451,-0.032,-0.0242,-0.0124,-0.0033,0.0082,0.016,0.0267,0.0364,0.043,0.0521,0.0636,0.0743,0.0816,0.0949,0.0981,0.1028,0.1046,0.1023,0.1017,0.107,0.1067,0.1085,0.1084,0.1083,0.1083,0,-0.0516,-0.0425,-0.0282,-0.0138,-0.0099,-0.0019,0.0106,0.0187,0.0264,0.0386,0.042,0.0543,0.0672,0.0773,0.0943,0.0992,0.1132,0.1152,0.1089,0.1099,0.1149,0.1143,0.1294,0.1319,0.1238,0.1239,0.1239,0,-0.0461,-0.0381,-0.0231,-0.0164,-0.0093,0.0015,0.0093,0.0185,0.0264,0.0409,0.0473,0.0604,0.0715,0.0918,0.1025,0.1155,0.118,0.1223,0.12,0.1173,0.1182,0.1176,0.1186,0.1227,0.1227,0.1228,0.1228,0,-0.0374,-0.0333,-0.0227,-0.0105,-0.0016,0.0086,0.019,0.0242,0.0355,0.044,0.0569,0.0654,0.0824,0.0956,0.1096,0.1176,0.1222,0.1233,0.1254,0.1231,0.1191,0.1214,0.1097,0.1231,0.123,0.123,0.123,0.123,-0.0324,-0.0251,-0.0135,-0.0018,0.0068,0.0163,0.0245,0.033,0.0438,0.058,0.063,0.0763,0.0886,0.1077,0.1157,0.1266,0.1269,0.1298,0.1306,0.1312,0.1309,0.1171,0.1292,0.1292,0.1292,0.1292,0.1292,0,-0.0232,-0.0156,-0.005,0.009,0.0182,0.0211,0.0328,0.0404,0.0519,0.0626,0.0732,0.0881,0.1008,0.1123,0.1257,0.1321,0.1346,0.1354,0.1351,0.1369,0.1298,0.1268,0.1331,0.1331,0.1331,0.1331,0.1331,0.1331,-0.0174,-0.0048,0.0006,0.0176,0.0254,0.0381,0.0445,0.0533,0.0619,0.0781,0.0885,0.0957,0.1069,0.121,0.1329,0.136,0.1407,0.1409,0.1446,0.1379,0.1374,0.1369,0.1341,0.1418,0.1418,0.1508,0.1508,0.1509]}]]